Lid_Strength_Index
3 3 3 3 3 3 2 2 2 2 2 2 2 2 2 2 4 6 8 6 6 4 6 9 9 9 9 10 10 10 13 15 15 14 13 12 13 11 11 12 11 10 10 9 8
3 3 3 2 3 3 3 2 2 2 3 3 2 2 3 3 7 10 5 4 4 5 9 10 11 11 12 12 11 12 14 15 13 12 13 12 13 12 12 12 11 10 9 8 8
3 3 3 3 3 3 3 3 2 3 3 3 3 3 3 4 11 10 5 5 5 6 8 9 10 11 13 12 13 13 14 14 13 12 12 13 13 11 12 13 11 11 10 9 8
3 4 3 3 3 3 3 3 3 3 3 3 3 3 5 7 16 8 5 6 6 7 8 9 10 13 13 14 12 14 14 13 13 13 13 13 12 12 12 11 9 9 9 9 9
4 3 3 3 3 3 3 3 3 3 3 4 4 4 8 12 12 7 7 7 8 8 9 10 11 12 14 13 13 14 13 13 12 12 12 11 12 12 11 9 8 8 9 9 8
4 3 3 3 3 3 3 4 4 3 4 4 4 5 11 15 8 8 9 9 8 9 9 9 11 11 12 13 13 12 12 12 11 11 11 13 11 12 10 8 8 8 8 7 7
4 4 3 3 3 3 4 4 4 4 4 4 4 7 11 12 7 8 8 9 8 8 10 9 9 10 11 13 11 12 14 12 12 11 12 11 12 12 8 7 8 7 7 6 7
4 4 4 3 3 3 4 4 4 4 5 4 6 8 12 7 7 9 8 9 8 7 8 8 8 10 11 11 13 14 14 15 11 11 10 11 13 9 7 8 8 8 7 8 8
4 4 4 3 3 4 5 5 6 5 5 7 9 11 14 9 11 9 9 10 8 8 8 8 8 11 11 13 14 14 16 15 13 10 10 11 13 10 8 9 9 9 9 10 9
4 4 4 3 3 5 6 5 7 8 8 10 10 12 12 13 11 10 9 8 10 10 10 10 11 11 12 13 18 17 16 14 14 11 11 12 12 10 9 10 10 11 11 11 10
4 4 3 3 4 5 8 9 11 11 10 14 14 14 13 11 10 10 9 10 10 11 13 12 12 15 15 14 14 14 14 15 12 10 12 12 13 11 10 11 12 11 11 11 11
3 4 3 3 4 6 7 11 12 12 14 13 13 13 12 11 13 11 8 11 13 14 14 13 15 14 13 13 13 13 15 13 11 10 12 13 13 12 12 13 12 11 11 11 11
2 4 3 3 5 7 9 10 9 9 13 15 14 14 13 11 13 12 10 12 14 15 16 15 14 13 13 13 14 12 13 13 13 12 12 13 14 13 12 11 11 10 10 10 11
2 3 3 4 7 7 10 8 9 10 13 15 15 14 12 12 14 11 10 11 13 15 16 14 13 13 13 14 13 15 11 12 13 15 16 13 17 14 13 13 12 12 11 11 11
2 3 5 5 8 10 9 9 9 10 18 16 15 11 12 13 13 12 10 12 14 15 15 14 14 14 14 13 12 13 10 13 15 16 16 16 17 14 14 14 13 12 11 11 10
2 3 5 6 9 9 8 10 10 15 16 16 16 16 14 14 14 13 12 11 12 15 14 13 12 13 12 11 11 10 12 16 16 16 18 18 17 15 15 15 13 12 12 11 10
3 5 7 8 10 9 9 10 15 17 18 16 17 16 17 16 15 15 14 15 16 16 16 15 15 13 12 13 11 12 13 16 17 18 18 18 18 14 14 12 12 13 12 11 10
5 7 9 10 9 9 11 12 17 16 17 17 17 17 18 17 17 16 16 16 15 17 18 18 16 14 13 13 13 14 14 17 21 20 19 16 18 15 12 11 11 11 11 11 10
6 9 10 9 9 9 11 15 15 14 17 17 17 18 17 17 18 17 17 16 15 16 17 17 16 14 13 12 11 14 15 15 18 20 22 18 16 13 12 12 12 12 12 12 12
8 10 11 9 8 9 13 13 13 16 16 17 15 18 18 18 18 18 18 15 15 14 15 17 18 15 13 11 12 12 13 16 16 22 22 19 19 17 15 15 13 13 14 13 12
7 11 10 8 9 12 13 12 15 15 15 15 17 18 18 18 18 18 18 16 14 15 14 15 17 15 14 13 13 13 14 16 16 18 20 21 18 14 14 14 14 14 13 13 13
8 13 9 9 12 14 13 16 15 15 14 15 15 16 17 17 18 19 18 17 14 14 15 14 16 18 15 12 11 12 13 15 17 20 17 18 18 12 12 13 13 14 13 13 13
12 13 9 9 13 13 16 16 15 15 15 15 16 15 16 18 18 17 17 15 14 14 14 14 17 19 16 14 13 14 13 13 15 16 18 19 17 11 12 13 12 14 14 13 13
11 14 13 12 12 13 15 14 15 14 15 15 15 15 17 18 17 18 17 15 14 13 12 12 16 18 17 16 15 16 14 13 16 18 17 17 16 15 14 14 13 14 14 13 14
9 12 11 15 14 13 13 14 15 16 14 14 16 16 16 18 18 19 16 16 14 13 13 13 18 18 16 16 16 16 17 16 18 17 18 17 18 16 14 14 14 14 15 15 14
11 11 12 13 13 13 13 14 16 15 15 16 17 15 14 16 15 17 16 16 16 15 14 15 18 21 20 17 16 16 15 15 17 17 18 17 18 14 12 13 14 14 15 16 16
9 9 8 12 14 13 13 13 14 13 13 13 14 15 16 14 13 14 14 15 15 15 15 17 18 20 19 20 19 18 16 15 14 15 16 18 14 14 15 14 14 15 16 16 16